Regional Weather Roundup
Issued by NWS

Home | Current Version | Previous Version | Text Only | Print | Product List | Glossary On
Versions: 1 2 3 4 5 6 7 8 9 10 11 12 13 14 15 16 17 18 19 20 21 22 23 24 25 26 27 28 29 30 31 32 33 34 35 36 37 38 39 40 41 42 43 44 45 46 47 48 49 50
466
ASUS44 KBMX 130810
RWRAL

ALABAMA REGIONAL WEATHER ROUNDUP
NATIONAL WEATHER SERVICE BIRMINGHAM AL
200 AM CST SAT FEB 13 2016

NOTE: "FAIR" INDICATES FEW OR NO CLOUDS BELOW 12,000 FEET
WITH NO SIGNIFICANT WEATHER AND/OR OBSTRUCTIONS TO VISIBILITY.

THE REMARK "TC" DENOTES TEMPERATURE IN DEGREES CELSIUS.

ALZ001>011-014-016>018-020-130900-
NORTH ALABAMA

CITY           SKY/WX    TMP DP  RH WIND       PRES   REMARKS
MUSCLE SHOALS  CLEAR     32  20  61 N8        30.42R WCI  25
HUNTSVILLE     PTCLDY    31  20  63 N9        30.37R WCI  23
DECATUR        PTCLDY    30  21  69 N16G23    30.39R WCI  19
HALEYVILLE     FAIR      31  21  66 N10       30.38R WCI  22
GADSDEN        CLEAR     34  23  64 N10       30.32F WCI  26
$$

ALZ012-013-022-023-030>036-040>044-130900-
WEST CENTRAL ALABAMA

CITY           SKY/WX    TMP DP  RH WIND       PRES   REMARKS
TUSCALOOSA     CLEAR     37  24  59 N7        30.38R WCI  32
$$

ALZ015-024>027-033>036-040>044-130900-
CENTRAL ALABAMA

CITY           SKY/WX    TMP DP  RH WIND       PRES   REMARKS
BIRMINGHAM     CLEAR     34  24  67 N7        30.35R WCI  28
MONTGOMERY     CLEAR     45  28  51 NW10G22   30.31R
SHELBY CO ARPT CLEAR     39  23  52 N9G20     30.32R WCI  33
MAXWELL AFB    CLEAR     44  29  55 NW10      30.30R
GREENVILLE     FAIR      46  29  51 N15       30.27
$$

ALZ019-021-028-029-037-038-045>048-130900-
EAST CENTRAL ALABAMA

CITY           SKY/WX    TMP DP  RH WIND       PRES   REMARKS
ANNISTON       CLEAR     37  25  61 VRB7      30.30S WCI  32
ALEXANDER CITY PTCLDY    38  26  61 N14G25    30.27S WCI  30
AUBURN         PTCLDY    41  27  57 NW15      30.25R
$$

ALZ051>064-130900-
SOUTHWEST ALABAMA

CITY           SKY/WX    TMP DP  RH WIND       PRES   REMARKS
MOBILE         PTCLDY    50  36  58 N13       30.30R
BROOKLEY FIELD PTCLDY    53  35  50 N17G23    30.30R
EVERGREEN      CLEAR     48  31  51 N8        30.29S
$$

ALZ049-050-065>069-130900-
SOUTHEAST ALABAMA

CITY           SKY/WX    TMP DP  RH WIND       PRES   REMARKS
DOTHAN         CLEAR     48  33  56 NW12      30.25R
OZARK          CLEAR     49  34  55 NW9       30.22S
TROY           CLEAR     48  30  49 NW16G23   30.26R
EUFAULA        FAIR      49  30  48 VRB7      30.22R
$$




USA.gov is the U.S. government's official web portal to all federal, state and local government web resources and services.